CET,Max TemperatureF,Mean TemperatureF,Min TemperatureF,Max Dew PointF,MeanDew PointF,Min DewpointF,Max Humidity, Mean Humidity, Min Humidity, Max Sea Level PressureIn, Mean Sea Level PressureIn, Min Sea Level PressureIn, Max VisibilityMiles, Mean VisibilityMiles, Min VisibilityMiles, Max Wind SpeedMPH, Mean Wind SpeedMPH, Max Gust SpeedMPH,PrecipitationIn, CloudCover, Events, WindDirDegrees
2013-2-1,64,51,38,57,49,39,100,96,72,30.45,30.32,30.27,6,2,0,10,2,,0.00,3,Fog,216
2013-2-2,61,52,44,57,43,30,100,69,31,30.27,30.20,30.15,6,6,5,21,10,,0.00,2,,327
2013-2-3,59,48,37,41,35,30,94,61,34,30.39,30.32,30.27,16,16,16,25,8,,0.00,,,27
2013-2-4,64,52,39,46,37,32,81,60,34,30.42,30.37,30.33,7,7,7,12,5,,0.00,,,14
2013-2-5,66,51,36,48,42,36,100,75,47,30.37,30.31,30.24,19,19,19,10,2,,0.00,,,281
2013-2-6,61,48,35,45,40,36,100,73,45,30.30,30.24,30.18,19,6,0,13,5,22,0.00,2,Fog,318
2013-2-7,59,46,33,42,36,28,100,67,31,30.33,30.27,30.24,16,16,16,16,7,,0.00,,,9
2013-2-8,60,48,37,42,36,30,81,64,45,30.25,30.13,30.06,19,19,19,13,7,,0.00,,,354
2013-2-9,59,47,35,38,33,27,88,58,29,30.32,30.26,30.17,19,14,12,17,7,,0.00,,,35
2013-2-10,62,48,33,48,38,30,93,69,37,30.32,30.19,30.09,16,8,6,13,2,,0.00,2,,249
2013-2-11,57,52,46,48,41,34,88,68,44,30.15,30.10,30.06,19,7,6,21,10,26,0.00,2,,295
2013-2-12,60,52,42,48,42,34,100,74,39,30.21,30.15,30.12,9,6,4,17,6,,0.00,5,,337
2013-2-13,63,50,36,52,45,36,100,81,59,30.27,30.23,30.21,19,8,6,12,3,22,0.00,3,,5
2013-2-14,73,57,41,56,48,41,100,75,43,30.25,30.17,30.12,19,18,16,9,3,,0.00,,,349
2013-2-15,71,55,39,53,47,39,100,77,46,30.18,30.12,30.09,19,12,4,9,1,,0.00,,,254
2013-2-16,61,52,42,58,50,43,100,90,72,30.15,30.09,30.06,9,4,0,10,2,,0.00,6,Fog,203
2013-2-17,62,56,50,54,51,48,100,83,63,30.07,30.00,29.95,6,6,6,13,2,,0.00,6,Rain,205
2013-2-18,63,57,51,59,54,52,100,92,72,29.96,29.84,29.77,9,4,0,25,6,32,0.28,7,Fog-Rain-Thunderstorm,174
2013-2-19,56,52,48,54,53,48,100,94,88,29.86,29.77,29.71,12,6,5,24,7,36,0.12,5,Rain,170
2013-2-20,63,51,39,58,46,39,100,87,59,30.06,30.00,29.92,9,5,0,10,2,,0.00,2,Fog,253
2013-2-21,63,56,48,61,55,46,100,97,93,30.07,29.99,29.92,6,4,1,18,8,,0.03,5,Rain,202
2013-2-22,64,60,53,61,55,48,100,88,77,29.91,29.82,29.74,12,6,1,25,16,38,0.31,5,Rain,243
2013-2-23,61,54,46,51,45,41,88,73,59,30.09,29.89,29.68,6,6,6,21,14,33,0.00,2,,293
2013-2-24,58,46,35,44,39,34,100,75,44,30.21,30.16,30.12,16,7,4,10,3,,0.00,2,,283
2013-2-25,60,48,35,41,36,28,93,66,33,30.19,30.14,30.09,19,7,6,13,5,,0.00,6,,17
2013-2-26,62,48,33,40,34,28,87,60,33,30.12,30.06,30.01,6,6,6,16,5,,0.00,1,,31
2013-2-27,60,46,33,46,39,32,95,71,45,30.02,29.90,29.83,19,7,6,9,3,,0.00,3,,35
2013-2-28,53,46,40,44,41,39,100,82,66,29.95,29.85,29.80,6,6,6,15,6,21,0.00,3,,317